Weather in Semenovka

Russia / Tomsk District     56°52′25″N   86°17′22″E
temp.,
°C
wind,
m/s
gust,
m/s
humid.,
%
clouds,
%
prec.,
mm/h
press.,
hPa
HPBL,
m
9 march, tue
tue901:00−5wnw81285100 0.8 1007738
04:00−10w51191100 0.0 1013582
07:00−11wsw41291100 0.1 1017586
10:00−10sw61288100 0.0 1019783
13:00−9sw61185100 0.1 1021904
16:00−7sw7128099 0.0 1021965
19:00−8sw6138399 0.0 1021797
22:00−9sw5138499 0.0 1020636
10 march, wed
wed1001:00−9ssw61483100 0.0 1018639
04:00−11ssw6148399 0.0 1017519
07:00−12ssw6158499 0.0 1017466
10:00−10sw61284100 0.0 1017533
13:00−7sw4887100 0.0 1016559
16:00−6ssw3687100 0.0 1016541
19:00−7s2392100 0.0 101481
22:00−7se3693100 0.0 1011144
11 march, thu
thu1101:00−3se51193100 0.0 1005452
04:000ssw61398100 2.3 1000988
07:00+1ssw61498100 4.0 998830
10:00−1sw101684100 0.6 10001105
13:00−5sw91685100 0.6 10051086
16:00−4sw71385100 0.1 10091088
19:00−5sw61390100 0.1 10111043
22:00−8sw61487100 0.1 1013846
12 march, fri
fri1201:00−9ssw51387100 0.1 1014607
04:00−8s61586100 0.0 1010581
07:00−5ssw71673100 1.4 10061452
10:00−10sw9158118 0.0 10081084
13:00−10sw8128459 0.1 10111225
16:00−11wsw71082100 0.1 10131187
19:00−13sw41089100 0.3 1014625
22:00−16sw4119190 0.0 1015455
13 march, sat
sat1301:00−16sw4109395 0.1 1015687
04:00−18wsw51091100 0.1 1016701
07:00−20wsw51190100 0.1 1019679
10:00−21wsw61191100 0.0 1023522
13:00−18sw61187100 0.0 1026734
16:00−16sw71286100 0.0 1027787
19:00−17sw61385100 0.0 1027713
22:00−17sw7168599 0.0 1028633